Temp
-8 -8 -8 -8 -8 -8 -8 -8 -8 -8 -8 -8 -8 -7 -7 -7 -7 -7 -7 -7 -7 -7 -7 -7 -6 -6 -7 -7 -7 -7 -7 -7 -7 -7 -7 -7 -8 -8 -8 -7 -7 -7 -7
-8 -8 -9 -9 -8 -8 -8 -8 -8 -8 -8 -8 -8 -7 -7 -7 -7 -7 -7 -7 -7 -7 -7 -7 -7 -7 -7 -7 -7 -7 -7 -7 -7 -7 -7 -7 -8 -7 -9 -8 -7 -7 -8
-9 -9 -9 -9 -9 -9 -9 -9 -9 -9 -8 -8 -7 -7 -7 -7 -7 -7 -7 -7 -7 -7 -7 -7 -7 -7 -7 -7 -7 -7 -8 -8 -7 -8 -8 -8 -8 -8 -9 -8 -8 -8 -8
-9 -9 -9 -10 -9 -9 -9 -9 -9 -10 -9 -9 -8 -8 -8 -7 -7 -7 -7 -8 -8 -7 -7 -8 -8 -8 -8 -8 -8 -8 -8 -8 -8 -8 -7 -8 -8 -10 -10 -8 -8 -8 -8
-9 -9 -9 -10 -9 -9 -10 -10 -10 -10 -10 -10 -10 -9 -9 -9 -8 -8 -7 -7 -7 -8 -8 -8 -8 -8 -8 -8 -8 -8 -8 -8 -8 -8 -7 -8 -8 -9 -9 -8 -8 -8 -8
-10 -9 -9 -10 -10 -10 -10 -10 -10 -10 -10 -10 -10 -10 -10 -9 -9 -9 -9 -8 -8 -7 -7 -7 -8 -8 -8 -9 -8 -8 -8 -8 -8 -8 -8 -9 -9 -8 -10 -10 -8 -8 -8
-10 -10 -10 -10 -10 -9 -10 -10 -10 -10 -10 -11 -11 -11 -10 -10 -10 -9 -10 -9 -8 -8 -7 -7 -7 -8 -8 -9 -9 -9 -9 -9 -8 -8 -8 -8 -9 -9 -9 -9 -9 -9 -9
-10 -10 -10 -10 -10 -10 -9 -10 -10 -11 -10 -10 -10 -10 -11 -10 -10 -9 -9 -9 -9 -9 -8 -7 -7 -7 -8 -9 -9 -9 -9 -9 -9 -9 -9 -9 -9 -9 -9 -9 -9 -9 -9
-10 -10 -10 -10 -10 -10 -8 -9 -6 -10 -11 -11 -11 -11 -11 -11 -10 -10 -10 -10 -10 -9 -8 -8 -8 -8 -8 -8 -8 -8 -9 -9 -9 -9 -9 -9 -9 -9 -9 -9 -9 -9 -9
-11 -11 -10 -10 -10 -8 -9 -11 -10 -11 -10 -9 -10 -11 -11 -11 -11 -10 -10 -10 -11 -10 -8 -8 -9 -9 -10 -10 -9 -9 -9 -9 -10 -9 -9 -9 -9 -9 -9 -9 -9 -9 -9
-11 -10 -10 -10 -10 -10 -9 -8 -8 -9 -9 -9 -10 -10 -11 -11 -11 -10 -10 -11 -11 -10 -10 -9 -9 -9 -9 -10 -10 -9 -9 -9 -9 -10 -10 -10 -10 -10 -10 -10 -10 -10 -10
-11 -10 -10 -10 -10 -10 -9 -9 -9 -8 -9 -10 -10 -10 -11 -11 -10 -10 -10 -11 -11 -11 -10 -11 -10 -10 -10 -10 -10 -10 -10 -10 -10 -10 -9 -9 -9 -10 -10 -10 -10 -10 -10
-10 -10 -10 -10 -9 -9 -9 -9 -9 -8 -8 -8 -9 -9 -10 -10 -10 -9 -10 -11 -11 -12 -11 -11 -11 -10 -10 -11 -10 -11 -11 -10 -10 -9 -10 -10 -10 -10 -10 -10 -10 -10 -10
-10 -10 -9 -9 -9 -8 -8 -9 -8 -8 -9 -9 -9 -9 -10 -10 -9 -10 -11 -11 -11 -12 -12 -12 -12 -11 -11 -11 -11 -11 -11 -10 -10 -10 -10 -10 -10 -10 -10 -10 -10 -11 -11
-10 -9 -9 -10 -10 -9 -9 -10 -9 -9 -9 -9 -9 -9 -9 -10 -10 -10 -11 -11 -11 -11 -11 -12 -11 -12 -11 -11 -11 -11 -11 -11 -11 -11 -11 -11 -11 -11 -11 -11 -11 -10 -10
-10 -10 -10 -10 -10 -10 -10 -10 -10 -10 -9 -10 -9 -9 -10 -10 -10 -11 -11 -11 -10 -11 -11 -12 -12 -11 -11 -11 -11 -11 -11 -11 -11 -11 -11 -11 -11 -11 -11 -11 -11 -11 -11
-9 -10 -10 -9 -10 -10 -10 -10 -10 -10 -10 -9 -10 -10 -10 -10 -11 -11 -11 -11 -12 -11 -11 -12 -13 -12 -12 -12 -12 -12 -12 -11 -11 -11 -11 -11 -11 -11 -11 -11 -11 -11 -11
-10 -9 -9 -9 -10 -10 -10 -10 -9 -10 -9 -10 -10 -11 -10 -11 -11 -11 -11 -12 -12 -12 -12 -12 -12 -12 -12 -12 -12 -12 -12 -12 -12 -12 -12 -12 -12 -12 -12 -12 -12 -12 -12
-10 -9 -9 -9 -9 -9 -9 -10 -10 -10 -10 -10 -10 -10 -11 -11 -11 -12 -12 -12 -12 -12 -12 -12 -12 -12 -13 -13 -13 -13 -12 -12 -12 -13 -12 -12 -12 -12 -12 -12 -12 -12 -13
-10 -10 -10 -9 -10 -10 -10 -10 -10 -10 -11 -10 -10 -11 -10 -11 -11 -11 -11 -12 -12 -12 -13 -12 -12 -12 -13 -14 -13 -13 -13 -13 -13 -13 -13 -13 -13 -13 -13 -13 -13 -13 -13
-11 -11 -11 -11 -11 -11 -11 -10 -11 -10 -10 -10 -11 -12 -12 -12 -12 -12 -12 -12 -13 -13 -13 -13 -13 -13 -13 -13 -14 -13 -13 -13 -13 -13 -13 -14 -14 -14 -14 -14 -14 -14 -14
-12 -11 -11 -11 -11 -11 -11 -12 -11 -11 -12 -12 -12 -12 -12 -12 -12 -13 -13 -13 -13 -13 -13 -13 -13 -13 -13 -13 -13 -13 -14 -14 -15 -14 -14 -14 -14 -14 -14 -14 -14 -15 -15
-12 -12 -12 -12 -11 -11 -12 -12 -12 -12 -12 -12 -12 -12 -12 -12 -12 -12 -13 -14 -14 -14 -14 -14 -14 -14 -14 -14 -14 -15 -15 -15 -15 -15 -15 -15 -15 -15 -15 -15 -16 -16 -16
-13 -13 -13 -13 -13 -13 -13 -13 -12 -12 -13 -13 -13 -13 -13 -14 -14 -14 -14 -14 -14 -14 -14 -14 -14 -14 -15 -15 -15 -15 -15 -15 -15 -15 -15 -15 -15 -16 -16 -16 -17 -17 -17
-13 -13 -13 -13 -14 -14 -15 -14 -14 -14 -14 -14 -14 -14 -14 -14 -14 -14 -15 -15 -15 -15 -15 -15 -15 -15 -15 -15 -15 -15 -15 -16 -16 -16 -16 -16 -16 -17 -17 -17 -17 -17 -17
-14 -14 -14 -14 -14 -15 -15 -15 -15 -15 -15 -15 -15 -15 -15 -15 -15 -15 -15 -15 -16 -16 -15 -15 -15 -15 -16 -16 -16 -16 -17 -17 -17 -17 -18 -18 -18 -18 -19 -18 -18 -18 -18
Height
5862 5860 5857 5855 5854 5852 5850 5848 5845 5843 5842 5839 5837 5836 5834 5833 5833 5832 5831 5831 5831 5831 5831 5830 5830 5830 5830 5830 5832 5833 5834 5835 5834 5835 5837 5837 5837 5839 5841 5842 5842 5843 5844
5858 5856 5854 5853 5852 5850 5849 5847 5846 5845 5844 5841 5838 5835 5833 5831 5830 5829 5828 5827 5826 5825 5825 5825 5825 5825 5826 5825 5825 5826 5827 5828 5828 5828 5831 5831 5831 5831 5834 5837 5838 5839 5840
5853 5851 5851 5850 5850 5848 5846 5844 5842 5840 5839 5837 5835 5834 5831 5829 5827 5826 5823 5822 5822 5820 5819 5819 5819 5820 5821 5821 5821 5821 5820 5821 5822 5823 5824 5823 5823 5823 5827 5832 5833 5835 5836
5850 5849 5849 5847 5847 5845 5843 5841 5839 5836 5834 5831 5829 5828 5827 5825 5822 5820 5820 5818 5816 5816 5816 5815 5816 5815 5815 5816 5817 5818 5818 5817 5818 5819 5813 5815 5814 5816 5821 5826 5828 5830 5830
5845 5845 5844 5843 5843 5842 5840 5838 5837 5836 5833 5830 5828 5826 5821 5819 5817 5816 5814 5813 5812 5811 5811 5811 5810 5810 5810 5811 5811 5811 5812 5814 5814 5814 5811 5811 5812 5810 5815 5818 5821 5822 5824
5841 5839 5839 5838 5838 5837 5836 5836 5834 5831 5829 5829 5827 5823 5820 5817 5813 5809 5809 5809 5807 5805 5805 5805 5804 5805 5805 5806 5805 5804 5806 5807 5808 5809 5808 5808 5808 5810 5809 5813 5815 5816 5818
5838 5835 5835 5833 5832 5832 5831 5829 5828 5826 5824 5821 5821 5820 5817 5814 5811 5806 5801 5801 5800 5799 5797 5797 5798 5799 5800 5800 5800 5798 5798 5800 5801 5803 5803 5804 5805 5807 5808 5808 5809 5810 5811
5831 5826 5826 5826 5822 5818 5816 5811 5809 5816 5816 5814 5813 5813 5812 5809 5806 5805 5801 5799 5797 5793 5790 5790 5791 5791 5792 5791 5792 5793 5793 5793 5793 5794 5795 5797 5798 5799 5801 5802 5803 5803 5804
5820 5819 5819 5815 5815 5805 5778 5797 5796 5791 5793 5799 5802 5805 5804 5802 5800 5799 5795 5793 5790 5790 5786 5785 5784 5784 5784 5784 5785 5786 5785 5785 5787 5788 5789 5790 5791 5791 5793 5794 5795 5796 5795
5811 5808 5805 5804 5802 5798 5785 5791 5785 5758 5768 5774 5784 5792 5794 5794 5793 5794 5791 5786 5783 5783 5782 5780 5780 5778 5777 5779 5780 5780 5780 5781 5782 5783 5784 5785 5785 5785 5784 5785 5786 5786 5787
5801 5799 5793 5789 5791 5787 5780 5782 5776 5760 5767 5772 5774 5779 5783 5784 5785 5785 5784 5781 5778 5778 5777 5775 5775 5772 5772 5772 5775 5775 5774 5775 5776 5777 5777 5777 5778 5777 5777 5777 5778 5778 5778
5788 5791 5786 5781 5780 5778 5770 5762 5762 5762 5762 5761 5764 5767 5771 5773 5775 5776 5776 5773 5772 5772 5771 5769 5769 5767 5766 5765 5766 5768 5768 5769 5771 5771 5771 5770 5769 5770 5770 5770 5770 5770 5769
5776 5776 5774 5769 5766 5763 5761 5757 5754 5743 5724 5732 5746 5754 5759 5762 5764 5767 5765 5765 5764 5764 5763 5763 5763 5762 5760 5762 5762 5763 5763 5763 5764 5766 5766 5766 5765 5763 5762 5763 5762 5762 5761
5765 5762 5761 5757 5753 5753 5752 5748 5746 5738 5721 5714 5739 5748 5752 5754 5755 5757 5758 5758 5756 5755 5755 5756 5757 5758 5757 5756 5757 5758 5758 5757 5756 5757 5757 5757 5759 5757 5754 5753 5754 5753 5752
5755 5751 5747 5746 5745 5742 5742 5741 5742 5737 5734 5724 5732 5742 5746 5745 5746 5748 5751 5752 5751 5750 5751 5749 5749 5749 5749 5751 5751 5752 5753 5751 5750 5750 5750 5751 5751 5748 5747 5745 5743 5743 5743
5745 5742 5740 5736 5736 5735 5733 5733 5738 5737 5733 5732 5735 5737 5736 5737 5738 5740 5742 5742 5742 5742 5743 5742 5740 5741 5742 5742 5744 5745 5745 5744 5742 5742 5742 5741 5742 5741 5738 5737 5735 5733 5732
5730 5729 5729 5727 5726 5726 5727 5725 5724 5725 5725 5726 5726 5726 5728 5729 5730 5732 5732 5732 5731 5731 5731 5733 5734 5733 5734 5735 5735 5735 5736 5735 5734 5734 5733 5732 5731 5731 5728 5726 5725 5723 5721
5716 5716 5716 5715 5714 5716 5717 5716 5715 5714 5715 5715 5717 5718 5720 5724 5725 5722 5721 5720 5720 5721 5723 5723 5724 5725 5726 5725 5726 5726 5726 5725 5725 5724 5723 5722 5720 5719 5716 5713 5711 5709 5707
5706 5704 5703 5702 5704 5705 5704 5704 5703 5704 5705 5706 5710 5708 5711 5712 5715 5714 5713 5712 5713 5714 5715 5715 5716 5716 5716 5717 5716 5717 5717 5716 5715 5714 5713 5712 5710 5708 5705 5701 5699 5696 5694
5699 5696 5693 5692 5692 5693 5693 5692 5695 5697 5694 5694 5696 5701 5703 5705 5706 5705 5705 5705 5705 5707 5707 5706 5706 5706 5707 5707 5707 5707 5707 5706 5704 5703 5702 5701 5698 5695 5691 5688 5686 5683 5680
5691 5690 5688 5687 5686 5687 5687 5688 5688 5689 5690 5692 5692 5692 5694 5696 5697 5696 5696 5697 5698 5699 5699 5699 5699 5699 5699 5699 5698 5698 5697 5695 5693 5692 5691 5688 5686 5683 5681 5677 5673 5670 5665
5682 5682 5682 5683 5683 5683 5683 5684 5686 5686 5687 5687 5689 5690 5690 5690 5690 5690 5692 5692 5691 5690 5691 5691 5691 5691 5691 5690 5689 5687 5686 5685 5685 5682 5679 5676 5674 5671 5667 5663 5658 5654 5650
5678 5676 5676 5675 5675 5677 5680 5681 5681 5681 5682 5684 5684 5684 5684 5685 5685 5685 5684 5682 5681 5681 5681 5681 5681 5681 5681 5680 5678 5677 5677 5675 5674 5671 5669 5666 5662 5657 5655 5650 5646 5642 5639
5674 5674 5672 5670 5670 5670 5669 5670 5671 5671 5674 5675 5679 5677 5677 5678 5678 5677 5675 5673 5674 5673 5673 5674 5674 5672 5672 5671 5669 5667 5667 5665 5663 5658 5655 5652 5648 5643 5640 5637 5633 5630 5626
5666 5666 5666 5666 5665 5664 5665 5665 5665 5667 5667 5668 5670 5669 5670 5669 5668 5668 5667 5667 5665 5666 5666 5665 5664 5663 5662 5662 5660 5658 5655 5652 5648 5646 5643 5639 5634 5630 5627 5624 5622 5618 5613
5660 5660 5660 5660 5660 5660 5661 5662 5662 5661 5662 5663 5663 5663 5662 5662 5662 5661 5661 5659 5658 5658 5657 5657 5656 5654 5653 5651 5648 5645 5642 5638 5635 5632 5629 5625 5621 5617 5614 5612 5608 5604 5599
Wind_Speed
12 12 11 14 15 12 9 10 9 9 8 7 7 7 6 5 6 8 11 13 14 16 16 18 21 22 22 26 27 25 29 25 25 28 25 27 25 27 22 20 17 14 14
12 13 12 12 14 11 8 6 5 7 8 9 9 7 6 6 7 8 9 11 13 14 17 16 15 17 23 21 22 25 23 26 30 28 32 31 33 34 28 22 16 15 14
13 15 16 10 11 10 9 7 6 5 7 9 12 13 11 10 10 9 8 10 11 12 14 16 16 18 15 17 22 21 22 26 30 30 29 33 30 26 24 24 16 14 13
12 15 17 14 13 13 12 13 14 12 10 10 11 11 12 11 11 12 11 11 12 13 12 12 17 19 19 19 18 19 21 21 23 21 24 18 19 31 28 22 16 17 14
11 12 15 13 16 18 20 20 18 19 19 17 16 16 12 9 11 11 10 10 12 13 14 14 18 18 21 22 21 23 23 24 23 24 19 14 20 31 26 21 21 19 21
16 15 18 17 19 22 25 26 25 23 24 22 19 20 19 13 10 7 8 10 10 11 13 15 16 16 18 18 19 22 24 24 25 25 26 22 19 29 38 28 27 27 27
20 22 23 23 26 26 27 27 32 32 30 28 26 22 22 21 16 12 7 5 6 10 11 12 14 14 13 15 17 22 25 24 24 25 24 23 21 22 25 25 30 32 30
23 25 30 29 30 31 35 30 33 34 36 36 33 28 26 27 24 19 14 11 6 6 8 11 13 14 15 18 17 18 24 25 25 23 24 25 23 25 29 32 32 32 32
32 32 35 37 40 50 53 38 30 43 38 41 39 33 31 26 26 24 20 18 9 9 9 10 11 14 16 17 18 20 18 25 25 26 26 26 27 26 26 26 27 28 31
34 38 44 45 46 43 51 42 63 48 46 43 38 36 32 26 26 25 24 22 17 11 12 13 10 12 10 15 16 13 17 20 27 25 25 26 26 27 29 30 30 30 30
37 44 50 52 53 54 52 43 41 51 37 44 41 37 33 29 27 27 26 23 21 17 11 10 13 9 11 13 14 16 15 14 13 21 26 27 27 29 31 33 34 34 34
48 49 53 57 56 54 57 55 52 43 47 59 53 42 36 28 26 27 28 24 23 20 14 12 13 12 11 10 11 13 13 11 13 13 13 15 15 15 13 15 18 19 20
54 53 53 52 50 48 47 48 46 51 27 38 39 39 33 27 23 25 21 24 26 20 16 14 14 14 11 13 12 14 16 17 17 19 17 17 18 17 18 19 19 19 20
50 47 42 44 43 41 40 40 35 37 23 31 39 30 28 27 23 20 18 19 21 22 19 17 15 16 13 15 15 15 16 17 18 19 19 18 21 23 23 21 21 20 22
43 40 41 41 40 37 33 30 27 31 24 21 16 24 28 19 17 18 18 20 20 19 23 19 19 19 18 17 18 20 21 22 21 21 23 24 23 26 28 24 25 29 29
42 40 37 38 35 31 29 29 21 24 24 25 32 26 21 21 18 21 25 22 23 22 26 25 23 22 21 22 23 25 25 25 25 27 27 29 30 27 30 32 32 34 34
36 32 34 36 33 27 23 25 25 24 21 23 23 20 21 21 21 25 30 31 30 28 28 32 25 24 23 24 25 26 27 27 27 26 29 30 31 31 32 34 35 36 39
32 32 33 34 32 27 24 25 25 24 23 26 27 26 25 24 23 18 21 23 27 23 25 29 31 26 26 27 27 27 27 27 28 29 30 31 33 36 36 39 41 43 46
27 27 28 30 30 25 24 26 28 34 23 34 27 28 28 22 22 16 16 13 15 17 20 22 26 30 29 27 26 26 27 27 29 31 34 37 39 41 43 45 46 46 46
16 15 21 27 28 24 21 22 24 23 26 27 30 28 32 21 25 25 22 21 22 23 16 28 31 30 27 25 27 29 32 33 34 35 37 38 40 40 40 40 41 43 46
18 19 16 17 15 13 19 15 14 13 12 22 18 16 17 20 19 20 23 22 24 28 29 25 22 23 25 28 31 33 33 34 36 36 36 35 36 38 39 42 45 48 51
10 12 16 15 13 12 15 17 14 8 12 16 9 19 23 21 15 15 16 20 20 18 24 24 24 26 29 31 33 34 34 33 32 33 35 37 40 42 42 43 45 44 39
7 8 10 11 10 12 12 9 6 10 14 11 15 21 23 25 26 26 21 18 20 21 25 28 29 30 31 31 30 30 31 32 33 35 38 39 40 41 41 40 39 36 36
11 9 11 13 14 13 14 16 11 12 15 17 19 21 21 23 25 26 26 26 26 27 29 30 31 32 30 28 29 31 33 35 37 38 40 41 41 42 42 40 39 39 39
16 15 17 17 17 17 18 20 20 21 21 22 22 24 25 26 27 27 27 26 26 26 25 25 25 26 28 31 34 36 39 40 42 43 43 42 43 43 43 42 42 42 42
17 17 18 19 20 19 19 22 23 24 23 24 25 26 25 26 26 26 24 20 20 21 23 25 27 30 33 36 39 41 43 44 44 43 42 42 41 41 41 41 41 41 41
Wind_Direction
284 305 327 341 344 336 356 7 360 355 355 351 355 3 1 325 308 312 293 280 278 275 272 265 260 255 245 255 243 249 245 254 260 261 258 257 252 243 245 249 244 245 246
272 283 303 326 331 329 313 313 321 320 322 326 329 324 333 322 316 313 300 298 291 276 268 265 268 264 252 243 242 247 248 259 258 256 256 254 258 251 230 242 238 242 244
264 272 285 310 310 316 309 292 285 288 298 299 301 304 307 308 298 302 296 286 296 297 274 269 265 265 271 265 258 254 249 249 256 257 258 261 255 224 218 230 228 238 242
263 271 279 291 285 291 300 296 295 291 296 282 280 277 281 291 297 291 292 292 295 290 286 280 272 266 259 256 257 260 256 253 254 254 254 246 215 209 213 225 228 240 241
254 268 271 286 281 286 292 298 304 308 299 306 303 287 277 285 296 295 283 286 288 295 285 286 285 273 264 256 251 252 253 250 247 243 248 239 243 219 208 223 237 246 252
258 258 271 277 278 282 288 294 295 290 294 295 300 301 280 271 266 279 294 272 267 279 291 296 300 278 272 264 257 256 255 253 251 252 256 268 276 245 218 224 250 252 256
260 272 279 277 278 277 278 282 286 288 286 287 290 299 279 272 268 261 272 291 288 273 273 286 290 287 276 279 274 266 258 256 257 262 261 260 251 240 239 250 252 259 259
269 267 269 267 268 266 262 257 262 272 279 280 280 282 286 271 272 267 271 274 306 318 282 273 283 289 286 276 271 272 256 251 250 253 259 261 257 249 249 250 255 259 261
273 281 282 280 274 271 263 255 249 248 248 261 267 273 276 276 278 279 274 274 284 297 302 285 268 272 278 284 279 276 271 249 251 251 252 255 257 256 256 258 259 259 260
283 288 288 289 291 291 306 300 309 320 238 239 243 255 266 267 278 281 281 285 298 300 295 310 311 283 282 281 284 283 287 280 258 256 258 259 260 261 262 263 261 262 265
285 286 287 290 295 299 298 291 300 319 263 248 239 246 254 260 270 282 286 298 288 280 291 313 313 312 284 275 276 283 276 287 280 262 261 265 268 275 272 268 268 267 264
280 284 288 290 292 293 297 305 310 306 281 274 250 242 243 249 267 278 285 293 290 271 275 306 314 301 293 285 276 277 277 269 293 282 274 269 268 270 274 274 266 272 275
287 292 291 292 293 296 298 301 310 310 277 241 224 238 234 239 256 273 286 285 279 257 262 282 303 299 290 285 276 269 269 274 278 278 273 269 269 268 269 271 270 269 266
290 293 294 294 294 293 296 300 309 309 302 186 220 232 233 249 260 276 284 289 276 250 258 272 289 298 278 277 277 263 261 261 263 267 266 265 272 272 268 272 275 274 278
287 292 292 293 295 295 296 300 301 303 302 252 256 238 250 244 265 258 278 292 292 273 268 271 286 297 290 270 264 266 266 266 267 266 271 271 275 278 273 275 275 275 276
284 285 287 291 293 292 292 292 282 278 288 277 264 265 258 264 276 275 282 285 281 284 274 267 273 281 291 283 271 269 266 264 260 262 267 263 268 263 255 271 272 273 274
287 284 284 285 287 287 282 277 278 277 273 277 272 278 269 270 271 279 280 279 280 274 270 265 264 274 281 282 279 273 271 272 272 268 270 272 273 272 271 273 273 272 268
288 288 282 281 280 278 275 272 273 273 259 247 254 253 252 259 281 279 277 270 274 267 269 269 262 266 276 276 273 271 271 272 276 276 273 272 271 270 270 269 269 269 269
291 286 280 274 269 263 260 266 268 266 260 254 250 250 239 255 266 262 275 271 271 280 290 281 278 272 269 268 265 265 266 268 270 271 272 272 272 270 271 272 273 275 277
271 302 294 274 271 268 260 263 262 276 263 255 231 240 254 268 260 266 269 267 277 280 258 275 277 271 259 261 264 265 266 267 269 269 269 271 273 274 275 275 277 278 279
289 312 308 273 311 269 262 267 265 291 242 235 270 260 262 260 256 267 271 267 272 263 260 264 269 270 269 267 265 268 272 274 276 277 276 278 279 278 279 281 283 282 282
310 312 317 292 289 266 261 272 272 237 234 251 236 236 257 269 239 239 266 263 275 262 258 260 258 261 265 268 273 277 279 279 278 277 280 283 285 286 286 287 289 287 284
303 296 292 279 269 256 248 254 284 261 259 260 250 252 245 251 248 260 267 259 259 259 260 262 264 269 274 277 278 278 277 280 282 284 286 286 284 285 285 286 285 285 284
273 277 259 254 244 239 235 251 260 242 236 240 235 243 248 250 255 260 262 263 264 268 272 275 278 279 281 280 281 283 283 285 287 289 289 289 290 287 284 281 279 280 281
245 245 245 244 243 241 242 244 244 245 246 248 250 253 260 261 261 265 268 274 276 276 277 278 278 281 284 285 285 285 284 284 284 287 288 286 284 282 280 279 280 281 282
249 246 241 247 251 249 246 247 249 249 253 255 256 259 261 263 267 270 269 267 270 273 276 278 281 283 284 285 286 287 288 289 290 289 287 286 285 284 283 284 285 287 290